Aktuell
News
Messwerte
Diagramme
Archiv
Wettervorhersage
Regen
Wettergefahren

Astro & Geo
Health
Pegel
Gästebuch
Kontakt
Impressum
Datenschutz
App

Leichter Regen bei 6.1 °C – Luftdruck: 998.4 hPa – Wind: NO 1.4 km/h
Messwerte von 14:07 Uhr; Warnsymbol: Datenbasis DWD
Übersicht
Heute
Gestern
Vor 1 Jahr
Info
Gestern – Der Tag im Rückblick
 
Messwerte von Mittwoch, 27.01.2021
Symbol
Zeitpunkt
Wetter-
zustand
Zeitpunkt
Temperatur
gefühlt
Zeitpunkt
Luftfeuchte
Taupunkt
Zeitpunkt
Luftdruck
Zeitpunkt
Wind
Zeitpunkt
Windböen
Max 15 Min.
Wind-
richtung
Zeitpunkt
Regen
Summe 1 h
Regenrate
Max 15 Min.
UV-Index
Max 15 Min.
Pegel Köln
Zeitpunkt
Warnlage
Zeitpunkt
00:15 Wolkig3 2.3 °C
2.3 °C
81 %
-0.7 °C
1017.5 hPa 4.7 km/h
1 Bft
13.0 km/h
3 Bft
S -
0.0 mm/h
0.0 482 cm
00:30 Wolkig3 2.2 °C
0.4 °C
80 %
-1.0 °C
1017.4 hPa 4.7 km/h
1 Bft
13.0 km/h
3 Bft
SSO -
0.0 mm/h
0.0 482 cm
00:45 Wolkig3 2.2 °C
1.2 °C
80 %
-1.0 °C
1017.6 hPa 3.2 km/h
1 Bft
13.0 km/h
3 Bft
SSO -
0.0 mm/h
0.0 482 cm
01:00 Wolkig3 2.1 °C
1.8 °C
79 %
-1.2 °C
1017.4 hPa 3.2 km/h
1 Bft
11.2 km/h
2 Bft
OSO 0.00 mm
0.0 mm/h
0.0 481 cm
01:15 Wolkig3 2.1 °C
-0.7 °C
79 %
-1.3 °C
1017.3 hPa 4.7 km/h
1 Bft
13.0 km/h
3 Bft
S -
0.0 mm/h
0.0 479 cm
01:30 Wolkig3 2.1 °C
2.1 °C
78 %
-1.5 °C
1017.2 hPa 3.2 km/h
1 Bft
11.2 km/h
2 Bft
OSO -
0.0 mm/h
0.0 479 cm
01:45 Wolkig3 2.1 °C
1.8 °C
77 %
-1.6 °C
1017.1 hPa 4.7 km/h
1 Bft
11.2 km/h
2 Bft
SO -
0.0 mm/h
0.0 479 cm
02:00 Wolkig3 2.1 °C
-0.6 °C
76 %
-1.8 °C
1016.7 hPa 6.5 km/h
2 Bft
14.4 km/h
3 Bft
SSO 0.00 mm
0.0 mm/h
0.0 478 cm
02:15 Wolkig3 2.2 °C
1.9 °C
75 %
-1.9 °C
1016.6 hPa 4.7 km/h
1 Bft
14.4 km/h
3 Bft
SSO -
0.0 mm/h
0.0 478 cm
02:30 Wolkig3 2.2 °C
1.9 °C
75 %
-1.9 °C
1016.7 hPa 3.2 km/h
1 Bft
11.2 km/h
2 Bft
S -
0.0 mm/h
0.0 478 cm
02:45 Wolkig3 2.2 °C
1.9 °C
74 %
-2.0 °C
1016.6 hPa 4.7 km/h
1 Bft
11.2 km/h
2 Bft
SSO -
0.0 mm/h
0.0 477 cm
03:00 Tröpfeln4 2.3 °C
2.0 °C
74 %
-1.9 °C
1016.7 hPa 6.5 km/h
2 Bft
11.2 km/h
2 Bft
SSW 0.00 mm
0.0 mm/h
0.0 476 cm
03:15 Tröpfeln4 2.3 °C
0.6 °C
75 %
-1.8 °C
1016.6 hPa 4.7 km/h
1 Bft
16.2 km/h
3 Bft
SW -
0.0 mm/h
0.0 475 cm
03:30 Leichter Schneefall2 2.6 °C
1.6 °C
74 %
-1.7 °C
1016.4 hPa 7.9 km/h
2 Bft
19.4 km/h
3 Bft
SSW -
0.0 mm/h
0.0 475 cm
03:45 Bedeckt2 2.5 °C
-0.8 °C
75 %
-1.6 °C
1016.3 hPa 9.7 km/h
2 Bft
20.9 km/h
4 Bft
SSW -
0.0 mm/h
0.0 475 cm
04:00 Leichter Schneefall2 2.3 °C
-0.4 °C
78 %
-1.2 °C
1016.1 hPa 7.9 km/h
2 Bft
20.9 km/h
4 Bft
S 0.00 mm
0.0 mm/h
0.0 474 cm
04:15 Stark bewölkt3 2.1 °C
-1.3 °C
80 %
-1.1 °C
1015.6 hPa 7.9 km/h
2 Bft
14.4 km/h
3 Bft
S -
0.0 mm/h
0.0 475 cm
04:30 Bedeckt2 1.9 °C
-0.5 °C
83 %
-0.8 °C
1015.2 hPa 7.9 km/h
2 Bft
16.2 km/h
3 Bft
SO -
0.0 mm/h
0.0 474 cm
04:45 Stark bewölkt3 1.8 °C
-0.1 °C
84 %
-0.8 °C
1015.2 hPa 6.5 km/h
2 Bft
14.4 km/h
3 Bft
S -
0.0 mm/h
0.0 474 cm
05:00 Stark bewölkt3 1.8 °C
0.6 °C
85 %
-0.6 °C
1014.6 hPa 4.7 km/h
1 Bft
14.4 km/h
3 Bft
S 0.00 mm
0.0 mm/h
0.0 473 cm
05:15 Wolkig3 1.8 °C
-0.6 °C
85 %
-0.6 °C
1014.5 hPa 4.7 km/h
1 Bft
13.0 km/h
3 Bft
SO -
0.0 mm/h
0.0 473 cm
05:30 Wolkig3 1.9 °C
0.7 °C
85 %
-0.5 °C
1014.6 hPa 7.9 km/h
2 Bft
14.4 km/h
3 Bft
SO -
0.0 mm/h
0.0 471 cm
05:45 Wolkig3 1.9 °C
-0.5 °C
85 %
-0.5 °C
1014.2 hPa 4.7 km/h
1 Bft
14.4 km/h
3 Bft
OSO -
0.0 mm/h
0.0 471 cm
06:00 Wolkig3 1.9 °C
0.7 °C
85 %
-0.5 °C
1013.9 hPa 6.5 km/h
2 Bft
17.6 km/h
3 Bft
OSO 0.00 mm
0.0 mm/h
0.0 471 cm
06:15 Bedeckt2 1.9 °C
0.0 °C
85 %
-0.5 °C
1013.4 hPa 4.7 km/h
1 Bft
17.6 km/h
3 Bft
OSO -
0.0 mm/h
0.0 471 cm
06:30 Leichter Schneefall2 1.8 °C
-2.1 °C
86 %
-0.5 °C
1013.3 hPa 6.5 km/h
2 Bft
20.9 km/h
4 Bft
OSO -
0.0 mm/h
0.0 471 cm
06:45 Leichter Schneefall2 1.8 °C
1.4 °C
87 %
-0.3 °C
1013.1 hPa 7.9 km/h
2 Bft
20.9 km/h
4 Bft
SSO -
0.0 mm/h
0.0 470 cm
07:00 Leichter Schneefall2 1.8 °C
-0.1 °C
87 %
-0.3 °C
1013.0 hPa 6.5 km/h
2 Bft
17.6 km/h
3 Bft
SO 0.00 mm
0.0 mm/h
0.0 470 cm
07:15 Leichter Schneefall2 1.7 °C
0.5 °C
88 %
-0.2 °C
1012.8 hPa 9.7 km/h
2 Bft
20.9 km/h
4 Bft
SSO -
0.0 mm/h
0.0 470 cm
07:30 Leichter Schneefall2 1.7 °C
-0.7 °C
89 %
-0.1 °C
1012.7 hPa 6.5 km/h
2 Bft
19.4 km/h
3 Bft
SSO -
0.0 mm/h
0.0 470 cm
07:45 Leichter Schneefall2 1.5 °C
1.0 °C
89 %
-0.3 °C
1012.5 hPa 7.9 km/h
2 Bft
17.6 km/h
3 Bft
SSO -
0.0 mm/h
0.0 470 cm
08:00 Leichter Schneefall2 1.3 °C
0.8 °C
90 %
-0.3 °C
1012.4 hPa 7.9 km/h
2 Bft
20.9 km/h
4 Bft
S 0.00 mm
0.0 mm/h
0.0 468 cm
08:15 Leichter Regen1 1.3 °C
0.8 °C
91 %
-0.2 °C
1012.1 hPa 7.9 km/h
2 Bft
20.9 km/h
4 Bft
SO -
0.0 mm/h
0.0 468 cm
08:30 Leichter Regen1 1.2 °C
-0.8 °C
92 %
-0.1 °C
1012.2 hPa 4.7 km/h
1 Bft
17.6 km/h
3 Bft
S -
0.0 mm/h
0.0 467 cm
08:45 Leichter Schneefall2 1.1 °C
1.1 °C
92 %
-0.2 °C
1012.3 hPa 6.5 km/h
2 Bft
19.4 km/h
3 Bft
SO -
0.0 mm/h
0.0 467 cm
09:00 Leichter Schneefall2 1.2 °C
-2.4 °C
92 %
-0.1 °C
1012.3 hPa 6.5 km/h
2 Bft
17.6 km/h
3 Bft
OSO 0.53 mm
0.0 mm/h
0.0 466 cm
09:15 Leichter Schneefall2 1.1 °C
-0.9 °C
93 %
-0.1 °C
1012.2 hPa 7.9 km/h
2 Bft
17.6 km/h
3 Bft
SO -
0.0 mm/h
0.0 466 cm
09:30 Bedeckt2 1.1 °C
-0.9 °C
93 %
-0.1 °C
1012.4 hPa 6.5 km/h
2 Bft
19.4 km/h
3 Bft
S -
0.0 mm/h
0.0 466 cm
09:45 Leichter Schneefall2 1.3 °C
0.0 °C
93 %
0.1 °C
1012.1 hPa 4.7 km/h
1 Bft
17.6 km/h
3 Bft
SSO -
0.0 mm/h
0.0 466 cm
10:00 Bedeckt2 1.4 °C
-1.1 °C
93 %
0.2 °C
1012.1 hPa 4.7 km/h
1 Bft
19.4 km/h
3 Bft
SO 0.58 mm
0.0 mm/h
0.0 465 cm
10:15 Stark bewölkt2 1.6 °C
1.2 °C
93 %
0.4 °C
1012.2 hPa 3.2 km/h
1 Bft
14.4 km/h
3 Bft
SSO -
0.0 mm/h
0.0 465 cm
10:30 Bedeckt2 1.7 °C
-0.7 °C
94 %
0.7 °C
1011.7 hPa 6.5 km/h
2 Bft
16.2 km/h
3 Bft
SSO -
0.0 mm/h
0.0 463 cm
10:45 Bedeckt2 2.0 °C
-0.4 °C
94 %
1.0 °C
1011.7 hPa 6.5 km/h
2 Bft
16.2 km/h
3 Bft
SSO -
0.0 mm/h
0.0 463 cm
11:00 Leichter Regen1 2.1 °C
-0.7 °C
94 %
1.1 °C
1011.7 hPa 6.5 km/h
2 Bft
17.6 km/h
3 Bft
SSO 0.25 mm
0.0 mm/h
0.0 463 cm
11:15 Bedeckt2 2.1 °C
2.1 °C
94 %
1.2 °C
1011.8 hPa 6.5 km/h
2 Bft
17.6 km/h
3 Bft
S -
0.0 mm/h
0.0 463 cm
11:30 Leichter Regen1 2.1 °C
-0.1 °C
93 %
1.0 °C
1011.9 hPa 6.5 km/h
2 Bft
16.2 km/h
3 Bft
SSO -
0.0 mm/h
0.0 462 cm
11:45 Bedeckt2 2.2 °C
2.2 °C
93 %
1.1 °C
1011.8 hPa 6.5 km/h
2 Bft
14.4 km/h
3 Bft
SSW -
0.0 mm/h
0.0 462 cm
12:00 Bedeckt2 2.3 °C
0.1 °C
94 %
1.4 °C
1011.8 hPa 6.5 km/h
2 Bft
17.6 km/h
3 Bft
SO 0.25 mm
0.0 mm/h
0.0 462 cm
12:15 Bedeckt2 2.5 °C
2.2 °C
94 %
1.6 °C
1011.7 hPa 3.2 km/h
1 Bft
13.0 km/h
3 Bft
SO -
0.0 mm/h
0.0 462 cm
12:30 Leichter Regen1 2.6 °C
2.3 °C
94 %
1.7 °C
1011.6 hPa 3.2 km/h
1 Bft
7.9 km/h
2 Bft
SSO -
0.0 mm/h
0.0 461 cm
12:45 Leichter Regen1 2.6 °C
2.3 °C
94 %
1.7 °C
1011.5 hPa 3.2 km/h
1 Bft
7.9 km/h
2 Bft
S -
0.0 mm/h
0.0 462 cm
13:00 Leichter Regen1 2.8 °C
1.1 °C
94 %
1.9 °C
1011.3 hPa 4.7 km/h
1 Bft
9.7 km/h
2 Bft
SO 0.50 mm
0.0 mm/h
0.0 462 cm
13:15 Leichter Regen1 3.0 °C
3.0 °C
94 %
2.1 °C
1011.3 hPa 3.2 km/h
1 Bft
7.9 km/h
2 Bft
SSO -
0.0 mm/h
0.0 462 cm
13:30 Bedeckt2 3.0 °C
3.0 °C
94 %
2.1 °C
1011.3 hPa 3.2 km/h
1 Bft
9.7 km/h
2 Bft
SSO -
0.0 mm/h
0.0 461 cm
13:45 Leichter Regen1 3.0 °C
2.1 °C
94 %
2.1 °C
1011.3 hPa 3.2 km/h
1 Bft
11.2 km/h
2 Bft
SO -
0.0 mm/h
0.0 459 cm
14:00 Leichter Regen1 3.0 °C
3.0 °C
94 %
2.1 °C
1011.0 hPa 3.2 km/h
1 Bft
7.9 km/h
2 Bft
SO 0.58 mm
0.0 mm/h
0.0 459 cm
14:15 Leichter Regen1 3.1 °C
3.1 °C
94 %
2.1 °C
1011.0 hPa 1.4 km/h
1 Bft
7.9 km/h
2 Bft
S -
0.0 mm/h
0.0 459 cm
14:30 Leichter Regen1 3.3 °C
1.3 °C
95 %
2.4 °C
1010.9 hPa 3.2 km/h
1 Bft
6.5 km/h
2 Bft
SSW -
0.0 mm/h
0.0 458 cm
14:45 Bedeckt2 3.6 °C
2.6 °C
95 %
2.7 °C
1011.1 hPa 4.7 km/h
1 Bft
14.4 km/h
3 Bft
SW -
0.0 mm/h
0.0 459 cm
15:00 Stark bewölkt2 3.8 °C
1.9 °C
94 %
2.8 °C
1011.2 hPa 6.5 km/h
2 Bft
13.0 km/h
3 Bft
SSO 0.25 mm
0.0 mm/h
0.0 458 cm
15:15 Stark bewölkt2 4.0 °C
3.8 °C
94 %
3.0 °C
1011.3 hPa 7.9 km/h
2 Bft
16.2 km/h
3 Bft
SSW -
0.0 mm/h
0.0 458 cm
15:30 Bedeckt2 4.1 °C
3.2 °C
94 %
3.1 °C
1011.3 hPa 6.5 km/h
2 Bft
14.4 km/h
3 Bft
WSW -
0.0 mm/h
0.0 458 cm
15:45 Bedeckt2 4.0 °C
3.8 °C
93 %
2.8 °C
1011.4 hPa 6.5 km/h
2 Bft
14.4 km/h
3 Bft
WNW -
0.0 mm/h
0.0 458 cm
16:00 Bedeckt2 4.1 °C
4.1 °C
93 %
2.9 °C
1011.4 hPa 4.7 km/h
1 Bft
13.0 km/h
3 Bft
WSW 0.00 mm
0.0 mm/h
0.0 456 cm
16:15 Bedeckt2 4.1 °C
3.2 °C
93 %
2.9 °C
1011.4 hPa 3.2 km/h
1 Bft
9.7 km/h
2 Bft
WNW -
0.0 mm/h
0.0 455 cm
16:30 Bedeckt2 4.2 °C
4.0 °C
93 %
3.0 °C
1011.4 hPa 3.2 km/h
1 Bft
6.5 km/h
2 Bft
S -
0.0 mm/h
0.0 455 cm
16:45 Stark bewölkt3 4.4 °C
4.4 °C
93 %
3.2 °C
1011.4 hPa 4.7 km/h
1 Bft
9.7 km/h
2 Bft
NW -
0.0 mm/h
0.0 455 cm
17:00 Stark bewölkt3 4.5 °C
1.9 °C
93 %
3.3 °C
1011.5 hPa 4.7 km/h
1 Bft
11.2 km/h
2 Bft
W 0.00 mm
0.0 mm/h
0.0 455 cm
17:15 Stark bewölkt3 4.4 °C
2.5 °C
93 %
3.2 °C
1011.6 hPa 4.7 km/h
1 Bft
13.0 km/h
3 Bft
SW -
0.0 mm/h
0.0 455 cm
17:30 Stark bewölkt3 4.5 °C
2.6 °C
93 %
3.3 °C
1011.7 hPa 7.9 km/h
2 Bft
14.4 km/h
3 Bft
NW -
0.0 mm/h
0.0 455 cm
17:45 Stark bewölkt2 4.6 °C
4.5 °C
93 %
3.4 °C
1011.7 hPa 6.5 km/h
2 Bft
16.2 km/h
3 Bft
WSW -
0.0 mm/h
0.0 455 cm
18:00 Stark bewölkt2 4.6 °C
2.3 °C
93 %
3.4 °C
1011.8 hPa 4.7 km/h
1 Bft
13.0 km/h
3 Bft
W 0.00 mm
0.0 mm/h
0.0 454 cm
18:15 Stark bewölkt2 4.7 °C
2.4 °C
93 %
3.5 °C
1011.7 hPa 4.7 km/h
1 Bft
13.0 km/h
3 Bft
SW -
0.0 mm/h
0.0 454 cm
18:30 Stark bewölkt2 4.7 °C
2.4 °C
93 %
3.5 °C
1011.6 hPa 7.9 km/h
2 Bft
14.4 km/h
3 Bft
SSW -
0.0 mm/h
0.0 454 cm
18:45 Stark bewölkt2 4.8 °C
4.7 °C
93 %
3.6 °C
1011.9 hPa 6.5 km/h
2 Bft
14.4 km/h
3 Bft
SW -
0.0 mm/h
0.0 454 cm
19:00 Stark bewölkt2 4.9 °C
4.1 °C
93 %
3.7 °C
1011.7 hPa 4.7 km/h
1 Bft
13.0 km/h
3 Bft
W 0.00 mm
0.0 mm/h
0.0 453 cm
19:15 Stark bewölkt2 5.0 °C
4.2 °C
93 %
3.8 °C
1011.7 hPa 4.7 km/h
1 Bft
13.0 km/h
3 Bft
SSW -
0.0 mm/h
0.0 452 cm
19:30 Stark bewölkt2 5.0 °C
5.0 °C
92 %
3.7 °C
1011.9 hPa 4.7 km/h
1 Bft
11.2 km/h
2 Bft
NNW -
0.0 mm/h
0.0 451 cm
19:45 Leichter Regen4 5.0 °C
4.2 °C
93 %
3.8 °C
1011.8 hPa 3.2 km/h
1 Bft
11.2 km/h
2 Bft
SW -
0.0 mm/h
0.0 451 cm
20:00 Leichter Regen4 5.1 °C
4.3 °C
93 %
3.9 °C
1011.7 hPa 4.7 km/h
1 Bft
9.7 km/h
2 Bft
SSW 0.00 mm
0.0 mm/h
0.0 450 cm
20:15 Leichter Regen1 5.1 °C
5.0 °C
93 %
3.9 °C
1011.7 hPa 3.2 km/h
1 Bft
11.2 km/h
2 Bft
WNW -
0.0 mm/h
0.0 450 cm
20:30 Leichter Regen4 5.1 °C
5.1 °C
93 %
3.9 °C
1011.6 hPa 1.4 km/h
1 Bft
4.7 km/h
1 Bft
SSW -
0.0 mm/h
0.0 450 cm
20:45 Bedeckt2 5.0 °C
4.9 °C
93 %
3.8 °C
1011.6 hPa 3.2 km/h
1 Bft
4.7 km/h
1 Bft
SSW -
0.0 mm/h
0.0 450 cm
21:00 Stark bewölkt2 5.0 °C
4.9 °C
93 %
3.8 °C
1011.8 hPa 3.2 km/h
1 Bft
6.5 km/h
2 Bft
SSW 0.25 mm
0.0 mm/h
0.0 450 cm
21:15 Bedeckt2 4.9 °C
4.1 °C
93 %
3.7 °C
1011.8 hPa 1.4 km/h
1 Bft
6.5 km/h
2 Bft
S -
0.0 mm/h
0.0 449 cm
21:30 Bedeckt2 4.9 °C
4.8 °C
93 %
3.7 °C
1011.6 hPa 3.2 km/h
1 Bft
6.5 km/h
2 Bft
S -
0.0 mm/h
0.0 448 cm
21:45 Stark bewölkt2 4.9 °C
4.9 °C
93 %
3.7 °C
1011.6 hPa 3.2 km/h
1 Bft
4.7 km/h
1 Bft
S -
0.0 mm/h
0.0 447 cm
22:00 Leichter Regen1 5.0 °C
5.0 °C
93 %
3.8 °C
1011.7 hPa 3.2 km/h
1 Bft
6.5 km/h
2 Bft
SSW 0.00 mm
0.0 mm/h
0.0 447 cm
22:15 Bedeckt2 5.0 °C
5.0 °C
93 %
3.8 °C
1011.7 hPa 1.4 km/h
1 Bft
3.2 km/h
1 Bft
S -
0.0 mm/h
0.0 447 cm
22:30 Bedeckt2 5.0 °C
5.0 °C
93 %
3.8 °C
1011.5 hPa 1.4 km/h
1 Bft
3.2 km/h
1 Bft
SSO -
0.0 mm/h
0.0 447 cm
22:45 Bedeckt2 5.1 °C
5.1 °C
94 %
4.1 °C
1011.5 hPa 3.2 km/h
1 Bft
6.5 km/h
2 Bft
S -
0.0 mm/h
0.0 446 cm
23:00 Bedeckt2 5.2 °C
5.2 °C
93 %
4.0 °C
1011.4 hPa 1.4 km/h
1 Bft
4.7 km/h
1 Bft
SO 0.00 mm
0.0 mm/h
0.0 446 cm
23:15 Bedeckt2 5.2 °C
5.2 °C
93 %
4.0 °C
1011.5 hPa 1.4 km/h
1 Bft
4.7 km/h
1 Bft
SO -
0.0 mm/h
0.0 446 cm
23:30 Bedeckt2 5.3 °C
4.6 °C
93 %
4.1 °C
1011.5 hPa 1.4 km/h
1 Bft
6.5 km/h
2 Bft
OSO -
0.0 mm/h
0.0 446 cm
23:45 Bedeckt2 5.2 °C
5.1 °C
93 %
4.0 °C
1011.4 hPa 1.4 km/h
1 Bft
4.7 km/h
1 Bft
ONO -
0.0 mm/h
0.0 446 cm
00:00 Bedeckt2 5.1 °C
5.0 °C
93 %
3.9 °C
1011.5 hPa 1.4 km/h
1 Bft
4.7 km/h
1 Bft
OSO 0.00 mm
0.0 mm/h
0.0 446 cm
Datenbasis Wetterzustand: ¹ Wetterstation Köln-Nippes (Stellwerk), ² powered by , ³ powered by OpenWeatherMap, CC BY-SA 4.0; Warnlage: DWD, Pegelonline, LANUV; Pegel Köln: Pegelonline
 
Extrem- und Durchschnittswerte
  Temperatur Luftfeuchte Luftdruck Wind Windböen Wind-
richtung
Regen UV-Index Pegel Köln KKT
Min

Max

Ø
1.1 °C
08:24 Uhr
5.3 °C
22:55 Uhr
3.1 °C
74.0 %
02:41 Uhr
95.0 %
14:23 Uhr
89.2 %
1010.9 hPa
14:19 Uhr
1017.7 hPa
00:07 Uhr
1012.9 hPa
 
 
11.2 km/h
03:44 Uhr
5.2 km/h
 
 
20.9 km/h
03:36 Uhr
 
 
 
S
 
 
 
 
3.19 mm
 
 
 
 
0.0
00:00 Uhr
 
446 cm
22:45 Uhr
482 cm
00:15 Uhr
 
KT
NT
  gefühlt Taupunkt   Wind Windböen   Regenrate Ozon Sonne Mond
Min

Max

Ø
-3.7 °C
09:11 Uhr
5.3 °C
22:55 Uhr
 
-2.0 °C
02:05 Uhr
4.3 °C
22:55 Uhr
1.4 °C
   
 
2 Bft
03:44 Uhr
5.2 km/h
 
 
4 Bft
03:36 Uhr
 
   
 
0.0 mm/h
00:00 Uhr
 
 
Chorweiler
60 μg/m³
05:00 Uhr
 
▲ 08:15 Uhr
▼ 17:15 Uhr
▼ 07:46 Uhr
▲ 15:32 Uhr
KKT = Klimatologischer Kenntag: ET = Eistag, FT = Frosttag, KT = Kalter Tag, ST = Sommertag, HT = Hitzetag, TN = Tropennacht, NT = Niederschlagstag, SH = Schneehöhe (Max Tag); Datenbasis Ozon: LANUV, Land NRW, dl-de/by-2-0
 
Detaillierte Warnlage
GLÄTTE
26.01.21, 22:03 Uhr bis 27.01.21, 04:00 Uhr
Es muss mit Glätte durch verbreitet überfrierende Nässe gerechnet werden.
LEICHTER SCHNEEFALL
27.01.21, 04:00 Uhr bis 12:00 Uhr
Es tritt im Warnzeitraum leichter Schneefall mit Mengen zwischen 1 cm und 3 cm auf. In Staulagen werden Mengen bis 5 cm erreicht. Verbreitet wird es glatt.
GLÄTTE
27.01.21, 06:01 Uhr bis 09:00 Uhr
Es muss vor allem auf Nebenstraßen und Brücken mit Glätte durch verbreitet überfrierende Nässe gerechnet werden.
GLÄTTE
27.01.21, 07:24 Uhr bis 10:00 Uhr
Es muss mit Glätte durch verbreitet überfrierende Nässe sowie geringfügigen Schneefall gerechnet werden.












27.01.21

27.01.21

27.01.21

27.01.21
LEICHTES HOCHWASSER
27.01.21

27.01.21

27.01.21
Datenbasis: DWD, Pegelonline, LANUV
Es ist ein Fehler aufgetreten.